| time (UTC) | temp F | wind direction | speed knots | gust knots | rain 1hr in | rain 24hr in | rain mn in | humidity % | barometer mb |
| 20260504110658 | 53 | 233 | 7.8 | 10.4 | 0.00 | 0.00 | 0.00 | 100 | 998.8 |
| 20260504110231 | 53 | 236 | 7.0 | 9.6 | 0.00 | 0.00 | 0.00 | 100 | 998.8 |
| 20260504081338 | 55 | 256 | 7.0 | 8.7 | 0.00 | 0.00 | 0.00 | 100 | 1000.4 |
| 20260504080658 | 56 | 257 | 7.0 | 9.6 | 0.00 | 0.00 | 0.00 | 100 | 1000.5 |
| 20260504070229 | 57 | 254 | 7.0 | 11.3 | 0.00 | 0.00 | 0.00 | 100 | 1000.6 |
| 20260504050658 | 58 | 253 | 7.0 | 10.4 | 0.00 | 0.00 | 0.00 | 100 | 1001.6 |
| 20260504050230 | 58 | 253 | 7.0 | 9.6 | 0.00 | 0.00 | 0.00 | 100 | 1001.6 |
| 20260504045338 | 58 | 248 | 6.1 | 8.7 | 0.00 | 0.00 | 0.00 | 100 | 1001.6 |
| 20260504044911 | 58 | 241 | 5.2 | 7.8 | 0.00 | 0.00 | 0.00 | 100 | 1001.6 |
| 20260504044018 | 58 | 236 | 6.1 | 7.8 | 0.00 | 0.00 | 0.00 | 100 | 1001.6 |
| 20260504043338 | 58 | 238 | 5.2 | 8.7 | 0.00 | 0.00 | 0.00 | 100 | 1001.6 |
| 20260504042658 | 58 | 238 | 6.1 | 8.7 | 0.00 | 0.00 | 0.00 | 100 | 1001.7 |
| 20260504042018 | 58 | 236 | 6.1 | 7.8 | 0.00 | 0.00 | 0.00 | 100 | 1001.7 |
| 20260504041338 | 58 | 229 | 6.1 | 7.8 | 0.00 | 0.00 | 0.00 | 100 | 1001.7 |
| 20260504040658 | 58 | 234 | 6.1 | 7.8 | 0.00 | 0.00 | 0.00 | 100 | 1001.8 |
| 20260504040018 | 59 | 232 | 5.2 | 8.7 | 0.00 | 0.00 | 0.00 | 100 | 1001.8 |
| 20260504035338 | 59 | 230 | 6.1 | 7.8 | 0.00 | 0.00 | 0.00 | 100 | 1001.8 |
| 20260504034912 | 59 | 233 | 6.1 | 7.8 | 0.00 | 0.00 | 0.00 | 100 | 1001.9 |
| 20260504034018 | 59 | 232 | 5.2 | 7.8 | 0.00 | 0.00 | 0.00 | 100 | 1001.9 |
| 20260504033548 | 59 | 227 | 6.1 | 7.8 | 0.00 | 0.00 | 0.00 | 100 | 1002.0 |
| 20260504032658 | 59 | 229 | 5.2 | 7.8 | 0.00 | 0.00 | 0.00 | 100 | 1002.0 |
| 20260504032018 | 59 | 232 | 6.1 | 7.0 | 0.00 | 0.00 | 0.00 | 100 | 1002.0 |
| 20260504031338 | 59 | 239 | 6.1 | 7.8 | 0.00 | 0.00 | 0.00 | 100 | 1002.1 |
| 20260504030658 | 59 | 236 | 6.1 | 7.8 | 0.00 | 0.00 | 0.00 | 100 | 1002.1 |
| 20260504030018 | 59 | 239 | 5.2 | 7.0 | 0.00 | 0.00 | 0.00 | 100 | 1002.1 |
| 20260504025338 | 59 | 227 | 4.3 | 7.0 | 0.00 | 0.00 | 0.00 | 100 | 1002.0 |
| 20260504024658 | 59 | 232 | 6.1 | 7.0 | 0.00 | 0.00 | 0.00 | 100 | 1002.2 |
| 20260504024018 | 59 | 231 | 4.3 | 6.1 | 0.00 | 0.00 | 0.00 | 100 | 1002.1 |
| 20260504023549 | 59 | 227 | 5.2 | 6.1 | 0.00 | 0.00 | 0.00 | 100 | 1002.1 |
| 20260504022658 | 58 | 228 | 4.3 | 6.1 | 0.00 | 0.00 | 0.00 | 100 | 1001.9 |
| 20260504022018 | 58 | 227 | 5.2 | 6.1 | 0.00 | 0.00 | 0.00 | 100 | 1001.9 |
| 20260504021338 | 58 | 223 | 4.3 | 7.0 | 0.00 | 0.00 | 0.00 | 100 | 1001.8 |
| 20260504020658 | 58 | 223 | 4.3 | 7.0 | 0.00 | 0.00 | 0.00 | 100 | 1001.7 |
| 20260504020018 | 57 | 222 | 4.3 | 7.0 | 0.00 | 0.00 | 0.00 | 100 | 1001.7 |
| 20260504015338 | 57 | 217 | 4.3 | 7.8 | 0.00 | 0.00 | 0.00 | 100 | 1001.6 |
| 20260504014658 | 57 | 210 | 5.2 | 8.7 | 0.00 | 0.00 | 0.00 | 100 | 1001.5 |
| 20260504014018 | 57 | 200 | 7.0 | 9.6 | 0.00 | 0.00 | 0.00 | 100 | 1001.4 |
| 20260504013338 | 57 | 197 | 6.1 | 9.6 | 0.00 | 0.00 | 0.00 | 100 | 1001.3 |
| 20260504012658 | 57 | 196 | 6.1 | 9.6 | 0.00 | 0.00 | 0.00 | 100 | 1001.3 |
| 20260504012018 | 56 | 195 | 6.1 | 9.6 | 0.00 | 0.00 | 0.00 | 100 | 1001.4 |
| 20260504011551 | 56 | 195 | 6.1 | 10.4 | 0.00 | 0.00 | 0.00 | 100 | 1001.3 |
| 20260504010912 | 56 | 196 | 6.1 | 10.4 | 0.00 | 0.00 | 0.00 | 100 | 1001.3 |
| 20260504010018 | 56 | 186 | 7.0 | 11.3 | 0.00 | 0.00 | 0.00 | 100 | 1001.3 |
| 20260504005338 | 56 | 192 | 7.8 | 11.3 | 0.00 | 0.00 | 0.00 | 100 | 1001.3 |
| 20260504004909 | 56 | 188 | 7.0 | 11.3 | 0.00 | 0.00 | 0.00 | 100 | 1001.3 |
| 20260504004018 | 56 | 186 | 7.8 | 11.3 | 0.00 | 0.00 | 0.00 | 100 | 1001.2 |
| 20260504003338 | 56 | 186 | 7.8 | 11.3 | 0.00 | 0.00 | 0.00 | 100 | 1001.4 |
| 20260504002658 | 56 | 181 | 7.8 | 11.3 | 0.00 | 0.00 | 0.00 | 100 | 1001.3 |
| 20260504002231 | 56 | 186 | 8.7 | 12.2 | 0.00 | 0.00 | 0.00 | 100 | 1001.3 |
| 20260504001338 | 56 | 184 | 9.6 | 12.2 | 0.00 | 0.00 | 0.00 | 100 | 1001.3 |
| 20260504000658 | 57 | 175 | 7.0 | 11.3 | 0.00 | 0.00 | 0.00 | 100 | 1001.4 |
| 20260504000228 | 57 | 169 | 7.0 | 11.3 | 0.00 | 0.00 | 0.00 | 100 | 1001.3 |
| 20260503235338 | 57 | 172 | 7.8 | 12.2 | 0.00 | 0.00 | 0.00 | 100 | 1001.3 |
| 20260503234909 | 57 | 173 | 8.7 | 12.2 | 0.00 | 0.00 | 0.00 | 100 | 1001.3 |
| 20260503234230 | 58 | 169 | 7.8 | 13.0 | 0.00 | 0.00 | 0.00 | 100 | 1001.3 |
| 20260503233338 | 59 | 164 | 8.7 | 13.0 | 0.00 | 0.00 | 0.00 | 100 | 1000.9 |
| 20260503232658 | 61 | 163 | 7.8 | 18.2 | 0.00 | 0.00 | 0.00 | 100 | 1000.8 |
| 20260503232018 | 67 | 213 | 11.3 | 18.2 | 0.00 | 0.00 | 0.00 | 100 | 1001.3 |
| 20260503231338 | 67 | 235 | 11.3 | 23.5 | 0.00 | 0.00 | 0.00 | 100 | 1001.5 |
| 20260503230658 | 67 | 224 | 11.3 | 20.0 | 0.00 | 0.00 | 0.00 | 100 | 1001.6 |
| 20260503230018 | 67 | 233 | 11.3 | 21.7 | 0.00 | 0.00 | 0.00 | 100 | 1001.6 |
| 20260503225338 | 67 | 250 | 12.2 | 20.0 | 0.00 | 0.00 | 0.00 | 100 | 1001.8 |
| 20260503224658 | 67 | 241 | 8.7 | 22.6 | 0.00 | 0.00 | 0.00 | 100 | 1002.0 |
| 20260503224018 | 67 | 239 | 13.9 | 22.6 | 0.00 | 0.00 | 0.00 | 100 | 1001.9 |
| 20260503223338 | 67 | 220 | 11.3 | 24.3 | 0.00 | 0.00 | 0.00 | 100 | 1001.9 |
| 20260503222658 | 67 | 234 | 13.0 | 24.3 | 0.00 | 0.00 | 0.00 | 100 | 1001.8 |
| 20260503222018 | 67 | 221 | 13.0 | 26.9 | 0.00 | 0.00 | 0.00 | 100 | 1001.8 |
| 20260503221338 | 67 | 230 | 12.2 | 21.7 | 0.00 | 0.00 | 0.00 | 100 | 1001.8 |
| 20260503220658 | 67 | 213 | 12.2 | 23.5 | 0.00 | 0.00 | 0.00 | 100 | 1001.9 |
| 20260503220018 | 67 | 223 | 12.2 | 22.6 | 0.00 | 0.00 | 0.00 | 100 | 1002.0 |
| 20260503215338 | 66 | 215 | 15.6 | 23.5 | 0.00 | 0.00 | 0.00 | 100 | 1001.8 |
| 20260503214658 | 66 | 207 | 11.3 | 22.6 | 0.00 | 0.00 | 0.00 | 100 | 1001.8 |
| 20260503214018 | 66 | 222 | 13.9 | 23.5 | 0.00 | 0.00 | 0.00 | 100 | 1001.9 |
| 20260503213338 | 67 | 244 | 10.4 | 22.6 | 0.00 | 0.00 | 0.00 | 100 | 1002.3 |
| 20260503212658 | 66 | 256 | 13.9 | 26.1 | 0.00 | 0.00 | 0.00 | 100 | 1002.2 |
| 20260503212018 | 65 | 236 | 19.1 | 26.9 | 0.00 | 0.00 | 0.00 | 100 | 1002.0 |
| 20260503211338 | 66 | 249 | 14.8 | 24.3 | 0.00 | 0.00 | 0.00 | 100 | 1002.2 |
| 20260503210658 | 65 | 253 | 12.2 | 26.1 | 0.00 | 0.00 | 0.00 | 100 | 1002.5 |
| 20260503210018 | 65 | 218 | 14.8 | 26.1 | 0.00 | 0.00 | 0.00 | 100 | 1002.4 |
| 20260503205338 | 66 | 230 | 11.3 | 25.2 | 0.00 | 0.00 | 0.00 | 100 | 1002.6 |
| 20260503204658 | 66 | 232 | 13.0 | 26.1 | 0.00 | 0.00 | 0.00 | 100 | 1002.5 |
| 20260503204018 | 65 | 228 | 14.8 | 26.9 | 0.00 | 0.00 | 0.00 | 100 | 1002.7 |
| 20260503203338 | 66 | 221 | 11.3 | 27.8 | 0.00 | 0.00 | 0.00 | 100 | 1003.1 |
| 20260503202658 | 66 | 247 | 12.2 | 26.1 | 0.00 | 0.00 | 0.00 | 100 | 1003.2 |
| 20260503202018 | 66 | 223 | 14.8 | 27.8 | 0.00 | 0.00 | 0.00 | 100 | 1002.9 |
| 20260503201338 | 64 | 214 | 16.5 | 26.9 | 0.00 | 0.00 | 0.00 | 100 | 1002.8 |
| 20260503200658 | 65 | 220 | 15.6 | 29.5 | 0.00 | 0.00 | 0.00 | 100 | 1003.2 |
| 20260503200018 | 65 | 237 | 14.8 | 29.5 | 0.00 | 0.00 | 0.00 | 100 | 1003.4 |
| 20260503195338 | 66 | 224 | 12.2 | 24.3 | 0.00 | 0.00 | 0.00 | 100 | 1003.8 |
| 20260503194658 | 65 | 216 | 14.8 | 27.8 | 0.00 | 0.00 | 0.00 | 100 | 1003.7 |
| 20260503194018 | 64 | 237 | 19.1 | 26.9 | 0.00 | 0.00 | 0.00 | 100 | 1003.4 |
| 20260503193338 | 64 | 203 | 15.6 | 26.9 | 0.00 | 0.00 | 0.00 | 100 | 1003.9 |
| 20260503192658 | 64 | 197 | 13.9 | 24.3 | 0.00 | 0.00 | 0.00 | 100 | 1003.7 |
| 20260503192018 | 65 | 220 | 11.3 | 26.9 | 0.00 | 0.00 | 0.00 | 100 | 1004.2 |
| 20260503191338 | 64 | 244 | 17.4 | 33.0 | 0.00 | 0.00 | 0.00 | 100 | 1004.1 |
| 20260503190658 | 64 | 229 | 18.2 | 33.0 | 0.00 | 0.00 | 0.00 | 100 | 1004.1 |
| 20260503190018 | 63 | 230 | 17.4 | 26.9 | 0.00 | 0.00 | 0.00 | 100 | 1004.3 |
| 20260503185338 | 64 | 245 | 14.8 | 27.8 | 0.00 | 0.00 | 0.00 | 100 | 1004.4 |
| 20260503184658 | 63 | 216 | 16.5 | 28.7 | 0.00 | 0.00 | 0.00 | 100 | 1004.4 |
| 20260503184018 | 63 | 242 | 17.4 | 31.3 | 0.00 | 0.00 | 0.00 | 100 | 1004.4 |
| 20260503183338 | 62 | 226 | 19.1 | 31.3 | 0.00 | 0.00 | 0.00 | 100 | 1004.5 |
| 20260503182658 | 62 | 216 | 16.5 | 30.4 | 0.00 | 0.00 | 0.00 | 100 | 1004.6 |
| 20260503182018 | 62 | 205 | 15.6 | 30.4 | 0.00 | 0.00 | 0.00 | 100 | 1004.7 |
| 20260503181338 | 62 | 224 | 16.5 | 31.3 | 0.00 | 0.00 | 0.00 | 100 | 1004.9 |
| 20260503180658 | 61 | 219 | 17.4 | 31.3 | 0.00 | 0.00 | 0.00 | 100 | 1005.0 |
| 20260503180227 | 61 | 231 | 19.1 | 30.4 | 0.00 | 0.00 | 0.00 | 100 | 1005.1 |
| 20260503175338 | 60 | 213 | 18.2 | 32.2 | 0.00 | 0.00 | 0.00 | 100 | 1005.0 |
| 20260503174658 | 60 | 248 | 18.2 | 25.2 | 0.00 | 0.00 | 0.00 | 100 | 1005.2 |
| 20260503174018 | 60 | 235 | 17.4 | 31.3 | 0.00 | 0.00 | 0.00 | 100 | 1005.2 |
| 20260503173338 | 60 | 232 | 18.2 | 31.3 | 0.00 | 0.00 | 0.00 | 100 | 1005.2 |
| 20260503172658 | 61 | 222 | 12.2 | 30.4 | 0.00 | 0.00 | 0.00 | 100 | 1005.9 |
| 20260503172018 | 59 | 230 | 19.1 | 31.3 | 0.00 | 0.00 | 0.00 | 100 | 1005.4 |
| 20260503171338 | 59 | 214 | 19.1 | 28.7 | 0.00 | 0.00 | 0.00 | 100 | 1005.4 |
| 20260503170658 | 59 | 225 | 19.1 | 27.8 | 0.00 | 0.00 | 0.00 | 100 | 1005.4 |
| 20260503150909 | 57 | 238 | 15.6 | 23.5 | 0.00 | 0.00 | 0.00 | 100 | 1006.6 |
| 20260503131338 | 51 | 217 | 11.3 | 19.1 | 0.00 | 0.00 | 0.00 | 100 | 1007.2 |
| 20260503130910 | 51 | 216 | 11.3 | 18.2 | 0.00 | 0.00 | 0.00 | 100 | 1007.4 |